This is the latest recevied weather packets stored in our database for station/object KE8ZLU. If no packets are shown the sender has not sent any weather packets the latest 10 day(s).
| Time | Temp. | Humidity | Pressure | Rain* | Wind** | Luminosity | Snow |
|---|---|---|---|---|---|---|---|
| 1777670174 | 7.22° C | 63% | 1016.4 hPa | 0 mm | - | 98 W/m² | - |
| 1777669872 | 7.22° C | 64% | 1016.4 hPa | 0 mm | - | 126 W/m² | - |
| 1777669568 | 7.22° C | 64% | 1016 hPa | 0 mm | - | 148 W/m² | - |
| 1777669265 | 7.22° C | 62% | 1016.3 hPa | 0 mm | - | 140 W/m² | - |
| 1777668961 | 7.22° C | 65% | 1016.1 hPa | 0 mm | - | 187 W/m² | - |
| 1777668659 | 7.22° C | 64% | 1016.4 hPa | 0 mm | - | 222 W/m² | - |
| 1777668355 | 7.22° C | 63% | 1016 hPa | 0 mm | - | 222 W/m² | - |
| 1777668051 | 7.22° C | 65% | 1016.3 hPa | 0 mm | - | 220 W/m² | - |
| 1777667748 | 6.67° C | 66% | 1016.4 hPa | 0 mm | - | 127 W/m² | - |
| 1777667446 | 7.22° C | 66% | 1016.5 hPa | 0 mm | - | 139 W/m² | - |
| 1777667143 | 6.67° C | 65% | 1016.4 hPa | 0 mm | - | 147 W/m² | - |
| 1777666839 | 7.22° C | 65% | 1016.1 hPa | 0 mm | - | 128 W/m² | - |
| 1777666536 | 6.67° C | 66% | 1016.4 hPa | 0 mm | - | 108 W/m² | - |
| 1777666232 | 6.67° C | 66% | 1016.1 hPa | 0 mm | - | 88 W/m² | - |
| 1777665930 | 6.67° C | 67% | 1016.4 hPa | 0 mm | - | 85 W/m² | - |
| 1777665627 | 6.67° C | 66% | 1016.4 hPa | 0 mm | - | 86 W/m² | - |
| 1777665324 | 7.22° C | 65% | 1016.4 hPa | 0 mm | - | 73 W/m² | - |
| 1777665020 | 6.67° C | 64% | 1016.5 hPa | 0 mm | - | 66 W/m² | - |
| 1777664715 | 7.22° C | 63% | 1016.1 hPa | 0 mm | - | 81 W/m² | - |
| 1777664411 | 7.22° C | 64% | 1016.1 hPa | 0 mm | - | 115 W/m² | - |
| 1777664110 | 7.22° C | 64% | 1016 hPa | 0 mm | - | 120 W/m² | - |
| 1777663808 | 7.78° C | 64% | 1015.8 hPa | 0 mm | - | 142 W/m² | - |
| 1777663504 | 7.78° C | 62% | 1016 hPa | 0 mm | - | 173 W/m² | - |
| 1777663202 | 7.78° C | 61% | 1015.7 hPa | 0 mm | - | 202 W/m² | - |
| 1777662899 | 7.78° C | 61% | 1015.9 hPa | 0 mm | - | 189 W/m² | - |
* Rain latest hour (hover to see other rain measurements)
** Current wind speed in m/s (hover to see current wind gust speed)